Palm Springs, CA

9:53 AM PDT on May 25, 2018 (GMT -0700)
Palm Springs International

Weather History for KPSP - March, 2013

Change the Weather History Date:

Wednesday, March 6, 2013

  Actual Average Record
Temperature  
Mean Temperature 65 °F 64 °F  
Max Temperature 76 °F 77 °F 99 °F (1972)
Min Temperature 53 °F 51 °F 30 °F (1952)
Degree Days  
Heating Degree Days 0 3  
Month to date heating degree days 0 18  
Since 1 July heating degree days 738 796  
Cooling Degree Days 0 2  
Month to date cooling degree days 22 10  
Year to date cooling degree days 34 37  
Growing Degree Days 15 (Base 50)    
Moisture  
Dew Point 37 °F    
Average Humidity 40    
Maximum Humidity 59    
Minimum Humidity 21    
Precipitation  
Precipitation 0.00 in 0.04 in 0.55 in (2001)
Month to date precipitation 0.00 0.28  
Year to date precipitation 0.93 2.31  
Since 1 July precipitation 2.15  
Snow  
Snow 0.00 in - - ()
Month to date snowfall 0.0  
Year to date snowfall 0.0  
Snow Depth 0.00 in    
Sea Level Pressure  
Sea Level Pressure 29.92 in    
Wind  
Wind Speed 9 mph (NNW)    
Max Wind Speed 29 mph    
Max Gust Speed 37 mph    
Visibility 10 miles    
Events      
T = Trace of Precipitation, MM = Missing Value Source: NWS Daily Summary

Daily Weather History Graph

Daily Weather History Graph

Search for Another Location

Airport or City:

Astronomy

Mar. 06, 2013 Rise Set
Actual Time 6:07 AM PST 5:46 PM PST
Civil Twilight 5:42 AM PST 6:11 PM PST
Nautical Twilight 5:14 AM PST 6:40 PM PST
Astronomical Twilight 4:45 AM PST 7:09 PM PST
Moon 2:09 AM PST (3/6) 12:44 PM PST (3/6)
Length of Visible Light 12h 29m
Length of Day
11h 39m
Waning Crescent, 29% of the Moon is Illuminated
Mar 6
Waning Crescent
Mar 11
New
Mar 19
First Quarter
Mar 27
Full
Apr 2
Last Quarter

Hourly Weather History & Observations

Time (PST) Temp. Dew Point Humidity Pressure Visibility Wind Dir Wind Speed Gust Speed Precip Events Conditions
12:53 AM 60.1 °F 43.0 °F 53% 29.93 in 10.0 mi NW 18.4 mph 29.9 mph N/A   Clear
1:53 AM 61.0 °F 39.0 °F 44% 29.93 in 10.0 mi NW 16.1 mph 31.1 mph N/A   Clear
2:53 AM 59.0 °F 41.0 °F 51% 29.93 in 10.0 mi NW 15.0 mph 25.3 mph N/A   Clear
3:53 AM 59.0 °F 39.0 °F 48% 29.94 in 10.0 mi NW 13.8 mph 24.2 mph N/A   Clear
4:53 AM 55.9 °F 39.9 °F 55% 29.95 in 10.0 mi Variable 3.5 mph - N/A   Clear
5:53 AM 55.0 °F 41.0 °F 59% 29.96 in 10.0 mi SE 3.5 mph - N/A   Scattered Clouds
6:53 AM 55.0 °F 41.0 °F 59% 29.98 in 10.0 mi ENE 3.5 mph - N/A   Clear
7:53 AM 57.9 °F 41.0 °F 53% 30.00 in 10.0 mi Calm Calm - N/A   Clear
8:53 AM 63.0 °F 39.0 °F 41% 30.01 in 10.0 mi Calm Calm - N/A   Clear
9:53 AM 66.9 °F 36.0 °F 32% 29.99 in 10.0 mi NNW 5.8 mph - N/A   Clear
10:53 AM 69.1 °F 36.0 °F 30% 29.99 in 10.0 mi NNW 13.8 mph 17.3 mph N/A   Scattered Clouds
11:53 AM 70.0 °F 37.0 °F 30% 29.95 in 10.0 mi NNW 10.4 mph 21.9 mph N/A   Clear
12:53 PM 72.0 °F 35.1 °F 26% 29.92 in 10.0 mi NNW 10.4 mph 17.3 mph N/A   Clear
1:53 PM 73.9 °F 34.0 °F 23% 29.90 in 10.0 mi Variable 6.9 mph 20.7 mph N/A   Clear
2:53 PM 75.0 °F 34.0 °F 22% 29.89 in 10.0 mi Variable 4.6 mph - N/A   Clear
3:53 PM 75.0 °F 33.1 °F 22% 29.87 in 10.0 mi East 3.5 mph - N/A   Clear
4:53 PM 73.9 °F 32.0 °F 21% 29.86 in 10.0 mi North 13.8 mph 18.4 mph N/A   Clear
5:53 PM 69.1 °F 34.0 °F 27% 29.86 in 10.0 mi NW 17.3 mph 26.5 mph N/A   Scattered Clouds
6:53 PM 66.9 °F 36.0 °F 32% 29.88 in 10.0 mi NW 13.8 mph 21.9 mph N/A   Clear
7:53 PM 66.0 °F 35.1 °F 32% 29.88 in 10.0 mi NNW 15.0 mph 21.9 mph N/A   Clear
8:53 PM 64.0 °F 36.0 °F 35% 29.88 in 10.0 mi NW 8.1 mph - N/A   Clear
9:53 PM 64.0 °F 35.1 °F 34% 29.89 in 10.0 mi North 6.9 mph - N/A   Clear
10:53 PM 61.0 °F 36.0 °F 39% 29.89 in 10.0 mi Calm Calm - N/A   Clear
11:53 PM 57.9 °F 39.0 °F 49% 29.89 in 10.0 mi Calm Calm - N/A   Clear